Regional Weather Roundup
Issued by NWS

Home | Current Version | Previous Version | Text Only | Print | Product List | Glossary On
Versions: 1 2 3 4 5 6 7 8 9 10 11 12 13 14 15 16 17 18 19 20 21 22 23 24 25 26 27 28 29 30 31 32 33 34 35 36 37 38 39 40 41 42 43 44 45 46 47 48 49 50
000
ASUS45 KCYS 161910
RWRWY

WYOMING REGIONAL WEATHER ROUNDUP
NATIONAL WEATHER SERVICE CHEYENNE WY
100 PM MDT TUE SEP 16 2014

NOTE:  "FAIR" INDICATES FEW OR NO CLOUDS BELOW 12,000 FEET
WITH NO SIGNIFICANT WEATHER AND/OR OBSTRUCTIONS TO VISIBILITY.

WYZ001-162000-
YELLOWSTONE NATIONAL PARK

CITY           SKY/WX    TMP DP  RH WIND       PRES   REMARKS
LK YELLOWSTONE   N/A     60  39  45 E6        30.32F
W YELLOWSTONE  NOT AVBL

$$
WYZ002>013-054>058-071-098>099-162000-
NORTHERN WYOMING

CITY           SKY/WX    TMP DP  RH WIND       PRES   REMARKS
JACKSON        SUNNY     68  34  28 S5        30.25F
CODY           MOSUNNY   72  48  43 NE8       30.08F
GREYBULL       MOSUNNY   75  46  35 CALM      30.03F
WORLAND        MOSUNNY   75  45  34 CALM      30.04F
SHERIDAN       SUNNY     83  32  16 VRB7      30.02F
BUFFALO        SUNNY     78  41  26 NE3       30.07F
GILLETTE       MOSUNNY   81  35  19 CALM      30.04F
HULETT         FAIR      77  41  27 MISG      30.05
NEWCASTLE      FAIR      77  34  20 N3        30.06

$$
WYZ014>020-022>026-101>103-162000-
CENTRAL WYOMING

CITY           SKY/WX    TMP DP  RH WIND       PRES   REMARKS
BIG PINEY      SUNNY     73  33  23 SW6       30.28F
PINEDALE       PTCLDY    73  28  19 NE3       30.29F
DUBOIS         FAIR      75  28  17 NW21G29   30.23F
LANDER         SUNNY     77  34  21 VRB5      30.15F
RIVERTON       SUNNY     74  41  30 E7        30.14F
CASPER         SUNNY     83  33  16 S17       30.12F
DOUGLAS        MOSUNNY   82  38  20 VRB3      30.11F

$$
WYZ021-027>030-104>119-162000-
SOUTHERN WYOMING

CITY           SKY/WX    TMP DP  RH WIND       PRES   REMARKS
EVANSTON       MOSUNNY   80  38  22 SW21G28   30.28F
KEMMERER       PTCLDY    75  32  20 NW8       30.30F
FORT BRIDGER   FAIR      77  37  23 NW7       30.30F
ROCK SPRINGS   SUNNY     79  31  17 SW10      30.25F
DIXON          FAIR      77  38  24 S5        30.29F
RAWLINS        SUNNY     79  28  15 W18G28    30.26F
SARATOGA       FAIR      73  32  21 CALM      30.29F
LARAMIE        SUNNY     75  29  18 NW22G31   30.28F
CHEYENNE       SUNNY     80  30  16 N13G25    30.20F
TORRINGTON     MOSUNNY   82  44  26 N5        30.07F
PINE BLUFFS    FAIR      81  36  19 N17       30.14F

$$



USA.gov is the U.S. government's official web portal to all federal, state and local government web resources and services.